Location: Ferchesar
(52.6477°N, 12.4298°E)
Time: 15:24:08
(UTC+01:00)

Vanguard 3 - Pass Details

Date: 15 December 2021
Orbit: 508 x 3260 km, 33.3° (Epoch: 22 January)

Event Time Altitude Azimuth Distance (km) Brightness Sun altitude
Rises 04:45:43 0° 263° (W) 6,695 - -30.3°
Reaches altitude 10° 04:50:29 10° 256° (WSW) 5,918 - -29.5°
Exits shadow 04:58:19 26° 236° (SW) 4,895 10.6 -28.4°
Maximum altitude 05:06:33 35° 200° (SSW) 4,415 10.6 -27.1°
Drops below altitude 10° 05:21:52 10° 143° (SE) 5,622 11.9 -24.8°
Sets 05:26:16 0° 135° (SE) 6,335 12.5 -24.1°
